Weather History for Fort Smith, AR

Change the Weather History Date:

Sunday, July 28, 2013

  Actual Average Record
Temperature  
Mean Temperature 79 °F 83 °F  
Max Temperature 90 °F 94 °F 107 °F (1986)
Min Temperature 67 °F 72 °F 63 °F (2004)
Cooling Degree Days 14 18  
Month to date cooling degree days 480 484  
Year to date cooling degree days 1207 1113  
Since 1 June cooling degree days 933 869  
Growing Degree Days 28 (Base 50)    
Moisture  
Dew Point 65 °F    
Average Humidity 69    
Maximum Humidity 87    
Minimum Humidity 50    
Precipitation  
Precipitation 0.00 in 0.10 in 1.26 in (1906)
Month to date precipitation 3.83 2.99  
Year to date precipitation 30.91 26.46  
Sea Level Pressure  
Sea Level Pressure 29.98 in    
Wind  
Wind Speed 6 mph (ENE)    
Max Wind Speed 15 mph    
Max Gust Speed 17 mph    
Visibility 10 miles    
Events      
T = Trace of Precipitation, MM = Missing Value Source: NWS Daily Summary

Daily Weather History Graph

Daily Weather History Graph

Search for Another Location

Airport:

Trip Planner

Search our weather history database for the weather conditions in past years. The results will help you decide how hot, cold, wet, or windy it might be!

Date:

Astronomy

Jul. 28, 2013 Rise Set
Actual Time 6:23 AM CDT 8:24 PM CDT
Civil Twilight 5:55 AM CDT 8:52 PM CDT
Nautical Twilight 5:20 AM CDT 9:26 PM CDT
Astronomical Twilight 4:43 AM CDT 10:03 PM CDT
Moon No Moon Rise 12:49 PM CDT (7/28)
Length of Visible Light 14h 57m
Length of Day
14h 00m
Waning Gibbous, 60% of the Moon is Illuminated
Jul 28
Waning Gibbous
Jul 29
Last Quarter
Aug 6
New
Aug 14
First Quarter
Aug 20
Full

Hourly Weather History & Observations

Time (CDT) Temp. Heat Index Dew Point Humidity Pressure Visibility Wind Dir Wind Speed Gust Speed Precip Events Conditions
12:53 AM 73.9 °F - 64.0 °F 71% 29.96 in 10.0 mi Calm Calm - N/A   Clear
1:53 AM 72.0 °F - 64.0 °F 76% 29.98 in 10.0 mi North 3.5 mph - N/A   Clear
2:53 AM 72.0 °F - 64.0 °F 76% 29.97 in 10.0 mi ENE 3.5 mph - N/A   Clear
3:53 AM 70.0 °F - 64.0 °F 81% 29.96 in 10.0 mi ENE 5.8 mph - N/A   Clear
4:53 AM 69.1 °F - 64.0 °F 84% 29.96 in 10.0 mi ENE 3.5 mph - N/A   Clear
5:53 AM 68.0 °F - 64.9 °F 90% 29.99 in 10.0 mi Calm Calm - N/A   Clear
6:53 AM 68.0 °F - 64.0 °F 87% 30.00 in 10.0 mi East 3.5 mph - N/A   Clear
7:53 AM 70.0 °F - 64.0 °F 81% 30.01 in 10.0 mi ENE 8.1 mph - N/A   Clear
8:53 AM 73.9 °F - 64.0 °F 71% 30.02 in 10.0 mi East 8.1 mph - N/A   Clear
9:53 AM 77.0 °F - 63.0 °F 62% 30.02 in 10.0 mi East 6.9 mph - N/A   Clear
10:53 AM 78.1 °F - 64.0 °F 62% 30.01 in 10.0 mi East 8.1 mph - N/A   Clear
11:53 AM 82.0 °F 83.1 °F 63.0 °F 52% 30.00 in 10.0 mi ESE 5.8 mph - N/A   Clear
12:53 PM 82.9 °F 84.6 °F 64.9 °F 54% 30.00 in 10.0 mi Calm Calm - N/A   Clear
1:53 PM 86.0 °F 88.2 °F 66.0 °F 51% 29.99 in 10.0 mi East 5.8 mph - N/A   Clear
2:53 PM 87.1 °F 89.2 °F 66.0 °F 49% 29.96 in 10.0 mi NNE 4.6 mph - N/A   Clear
3:53 PM 89.1 °F 92.9 °F 68.0 °F 50% 29.96 in 10.0 mi East 5.8 mph - N/A   Clear
4:53 PM 89.1 °F 92.9 °F 68.0 °F 50% 29.94 in 10.0 mi ENE 10.4 mph - N/A   Clear
5:53 PM 88.0 °F 90.7 °F 66.9 °F 49% 29.94 in 10.0 mi ENE 10.4 mph - N/A   Clear
6:53 PM 87.1 °F 90.6 °F 68.0 °F 53% 29.94 in 10.0 mi ENE 11.5 mph - N/A   Clear
7:53 PM 84.0 °F 87.0 °F 68.0 °F 58% 29.96 in 10.0 mi ENE 8.1 mph - N/A   Scattered Clouds
8:53 PM 80.1 °F 82.9 °F 69.1 °F 69% 29.97 in 10.0 mi East 4.6 mph - N/A   Clear
9:53 PM 81.0 °F 83.0 °F 66.0 °F 60% 29.98 in 10.0 mi East 8.1 mph - N/A   Mostly Cloudy
10:53 PM 79.0 °F - 66.9 °F 66% 30.00 in 10.0 mi East 5.8 mph - N/A   Mostly Cloudy
11:53 PM 75.9 °F - 66.9 °F 74% 30.00 in 10.0 mi East 4.6 mph - N/A   Clear